QPF
0.00 0.00 0.00 0.00 0.01 0.02 0.02 0.01 0.06 0.06 0.02 0.00 0.00 0.00 0.00 0.00 0.00 0.00 0.00 0.00 0.00 0.00 0.00 0.01 0.01 0.00 0.00 0.00 0.00 0.00 0.00 0.00 0.00 0.00 0.00 0.00 0.02 0.02 0.01 0.01 0.01 0.01 0.03 0.01 0.00 0.00 0.00 0.01 0.04
0.00 0.00 0.00 0.00 0.01 0.03 0.02 0.08 0.03 0.06 0.04 0.01 0.03 0.00 0.00 0.00 0.00 0.00 0.00 0.00 0.00 0.00 0.00 0.00 0.00 0.00 0.00 0.00 0.00 0.00 0.00 0.00 0.00 0.00 0.00 0.00 0.00 0.01 0.02 0.01 0.01 0.02 0.02 0.00 0.00 0.00 0.00 0.01 0.02
0.00 0.00 0.00 0.02 0.05 0.01 0.01 0.01 0.03 0.05 0.04 0.00 0.00 0.00 0.00 0.00 0.00 0.00 0.00 0.00 0.00 0.00 0.00 0.00 0.00 0.00 0.00 0.00 0.00 0.00 0.00 0.00 0.00 0.00 0.00 0.00 0.00 0.00 0.01 0.01 0.01 0.00 0.00 0.00 0.00 0.00 0.00 0.00 0.03
0.00 0.00 0.03 0.07 0.10 0.06 0.03 0.01 0.09 0.06 0.02 0.00 0.00 0.00 0.00 0.00 0.00 0.00 0.00 0.00 0.00 0.00 0.00 0.00 0.00 0.00 0.00 0.00 0.00 0.00 0.00 0.00 0.00 0.00 0.00 0.01 0.01 0.01 0.01 0.01 0.00 0.00 0.00 0.00 0.00 0.00 0.00 0.00 0.04
0.00 0.00 0.01 0.07 0.12 0.05 0.02 0.01 0.07 0.02 0.00 0.00 0.00 0.00 0.00 0.00 0.00 0.00 0.00 0.00 0.00 0.00 0.00 0.00 0.00 0.00 0.00 0.00 0.00 0.00 0.00 0.00 0.00 0.01 0.01 0.01 0.01 0.00 0.00 0.00 0.00 0.00 0.00 0.00 0.00 0.00 0.02 0.05 0.09
0.02 0.00 0.02 0.06 0.04 0.02 0.01 0.05 0.08 0.02 0.00 0.00 0.00 0.00 0.00 0.00 0.00 0.00 0.00 0.00 0.00 0.00 0.00 0.00 0.00 0.00 0.00 0.00 0.00 0.00 0.00 0.03 0.00 0.00 0.00 0.01 0.01 0.01 0.00 0.00 0.00 0.00 0.00 0.00 0.00 0.00 0.02 0.07 0.06
0.02 0.01 0.02 0.05 0.01 0.01 0.00 0.02 0.06 0.01 0.00 0.00 0.00 0.00 0.00 0.00 0.00 0.00 0.00 0.00 0.00 0.00 0.00 0.00 0.00 0.00 0.00 0.00 0.00 0.00 0.00 0.00 0.00 0.00 0.00 0.00 0.00 0.00 0.00 0.00 0.00 0.00 0.00 0.00 0.00 0.00 0.00 0.01 0.00
0.03 0.03 0.05 0.07 0.02 0.00 0.00 0.02 0.03 0.01 0.00 0.00 0.00 0.00 0.00 0.00 0.00 0.00 0.00 0.00 0.00 0.00 0.00 0.00 0.00 0.00 0.00 0.00 0.00 0.00 0.00 0.00 0.00 0.00 0.00 0.00 0.00 0.00 0.00 0.00 0.00 0.00 0.00 0.00 0.00 0.00 0.00 0.00 0.00
0.04 0.08 0.05 0.07 0.00 0.00 0.00 0.02 0.05 0.03 0.00 0.00 0.00 0.00 0.00 0.00 0.00 0.01 0.00 0.00 0.00 0.00 0.00 0.00 0.00 0.00 0.00 0.00 0.00 0.00 0.00 0.01 0.01 0.00 0.00 0.02 0.00 0.01 0.00 0.00 0.00 0.00 0.00 0.00 0.00 0.00 0.00 0.00 0.00
0.03 0.05 0.03 0.06 0.02 0.00 0.00 0.01 0.05 0.04 0.07 0.04 0.00 0.00 0.00 0.00 0.00 0.00 0.00 0.00 0.00 0.00 0.00 0.00 0.00 0.00 0.00 0.00 0.00 0.00 0.00 0.00 0.00 0.00 0.00 0.00 0.00 0.01 0.00 0.00 0.00 0.00 0.00 0.00 0.00 0.00 0.00 0.00 0.00
0.00 0.07 0.03 0.01 0.01 0.00 0.00 0.01 0.03 0.08 0.13 0.03 0.00 0.00 0.00 0.00 0.00 0.00 0.00 0.00 0.00 0.00 0.00 0.00 0.00 0.00 0.00 0.00 0.00 0.00 0.00 0.00 0.00 0.00 0.00 0.00 0.00 0.01 0.02 0.05 0.07 0.04 0.00 0.00 0.00 0.00 0.00 0.00 0.00
0.00 0.11 0.13 0.03 0.00 0.00 0.00 0.04 0.01 0.01 0.06 0.00 0.00 0.00 0.00 0.00 0.00 0.00 0.00 0.00 0.00 0.00 0.00 0.01 0.00 0.00 0.00 0.00 0.00 0.00 0.00 0.00 0.00 0.00 0.00 0.00 0.00 0.00 0.03 0.01 0.01 0.01 0.00 0.00 0.00 0.00 0.00 0.00 0.00
0.03 0.04 0.13 0.03 0.01 0.00 0.06 0.07 0.01 0.02 0.01 0.00 0.00 0.00 0.00 0.00 0.00 0.00 0.00 0.00 0.00 0.00 0.01 0.01 0.00 0.00 0.00 0.00 0.00 0.00 0.00 0.00 0.00 0.01 0.02 0.00 0.00 0.00 0.02 0.00 0.01 0.00 0.01 0.01 0.00 0.00 0.00 0.00 0.00
0.03 0.03 0.11 0.18 0.11 0.04 0.07 0.06 0.02 0.02 0.00 0.00 0.00 0.00 0.00 0.00 0.00 0.00 0.00 0.00 0.00 0.00 0.00 0.00 0.00 0.00 0.00 0.00 0.00 0.00 0.00 0.00 0.00 0.00 0.00 0.00 0.00 0.01 0.01 0.00 0.00 0.00 0.00 0.00 0.01 0.00 0.00 0.00 0.00
0.01 0.00 0.02 0.06 0.10 0.08 0.08 0.09 0.05 0.00 0.00 0.00 0.00 0.00 0.00 0.00 0.00 0.00 0.00 0.00 0.00 0.00 0.00 0.00 0.00 0.00 0.00 0.00 0.00 0.00 0.00 0.00 0.00 0.00 0.02 0.01 0.00 0.01 0.00 0.00 0.01 0.04 0.02 0.00 0.00 0.00 0.00 0.00 0.00
0.04 0.01 0.02 0.02 0.01 0.01 0.05 0.16 0.14 0.08 0.03 0.01 0.00 0.00 0.00 0.00 0.00 0.00 0.00 0.00 0.00 0.00 0.00 0.00 0.00 0.00 0.00 0.00 0.00 0.00 0.00 0.00 0.01 0.01 0.01 0.01 0.04 0.01 0.00 0.00 0.00 0.03 0.03 0.02 0.00 0.00 0.00 0.00 0.00
0.00 0.00 0.00 0.03 0.02 0.02 0.08 0.12 0.06 0.05 0.04 0.04 0.00 0.00 0.00 0.00 0.00 0.00 0.00 0.00 0.00 0.00 0.00 0.00 0.00 0.00 0.00 0.00 0.00 0.00 0.00 0.00 0.01 0.01 0.02 0.00 0.02 0.00 0.02 0.04 0.00 0.01 0.02 0.00 0.00 0.00 0.00 0.00 0.00
0.00 0.00 0.00 0.01 0.04 0.11 0.09 0.03 0.01 0.02 0.06 0.03 0.00 0.00 0.00 0.00 0.00 0.00 0.00 0.00 0.00 0.00 0.00 0.00 0.00 0.00 0.00 0.00 0.00 0.00 0.00 0.00 0.00 0.00 0.02 0.10 0.04 0.00 0.04 0.02 0.01 0.01 0.00 0.00 0.00 0.00 0.00 0.00 0.00
0.00 0.00 0.00 0.00 0.02 0.07 0.09 0.04 0.00 0.00 0.00 0.01 0.00 0.00 0.00 0.00 0.00 0.00 0.00 0.00 0.00 0.00 0.00 0.00 0.00 0.00 0.00 0.00 0.00 0.00 0.02 0.00 0.00 0.01 0.03 0.11 0.05 0.03 0.06 0.01 0.02 0.00 0.00 0.00 0.01 0.01 0.00 0.00 0.00
0.00 0.00 0.00 0.00 0.00 0.00 0.09 0.08 0.01 0.04 0.07 0.07 0.01 0.00 0.00 0.00 0.00 0.00 0.00 0.00 0.00 0.00 0.00 0.00 0.00 0.00 0.00 0.00 0.00 0.00 0.01 0.01 0.02 0.00 0.02 0.06 0.01 0.02 0.01 0.01 0.01 0.00 0.00 0.00 0.01 0.00 0.00 0.00 0.00
0.00 0.00 0.00 0.00 0.00 0.00 0.03 0.03 0.01 0.02 0.08 0.10 0.02 0.00 0.00 0.00 0.00 0.00 0.00 0.00 0.00 0.00 0.00 0.00 0.00 0.00 0.00 0.00 0.00 0.01 0.00 0.01 0.03 0.01 0.00 0.01 0.01 0.02 0.07 0.00 0.00 0.00 0.00 0.01 0.01 0.00 0.00 0.00 0.00
0.00 0.00 0.00 0.00 0.00 0.00 0.00 0.01 0.03 0.04 0.06 0.06 0.03 0.00 0.00 0.01 0.02 0.02 0.00 0.00 0.00 0.00 0.00 0.00 0.00 0.00 0.00 0.00 0.00 0.00 0.01 0.01 0.00 0.00 0.01 0.00 0.01 0.01 0.03 0.02 0.01 0.01 0.00 0.00 0.00 0.01 0.00 0.00 0.00
0.00 0.00 0.00 0.00 0.00 0.00 0.00 0.01 0.00 0.11 0.12 0.14 0.09 0.03 0.04 0.02 0.04 0.03 0.01 0.01 0.00 0.00 0.00 0.00 0.00 0.00 0.00 0.00 0.00 0.00 0.00 0.00 0.01 0.00 0.06 0.01 0.01 0.01 0.01 0.01 0.01 0.00 0.00 0.00 0.00 0.00 0.00 0.00 0.00
0.00 0.00 0.00 0.00 0.00 0.00 0.00 0.00 0.00 0.00 0.01 0.08 0.05 0.07 0.05 0.00 0.02 0.02 0.01 0.01 0.00 0.00 0.00 0.00 0.00 0.00 0.00 0.00 0.00 0.00 0.00 0.00 0.01 0.01 0.11 0.06 0.01 0.01 0.01 0.00 0.00 0.00 0.00 0.00 0.00 0.01 0.00 0.00 0.00
0.00 0.00 0.00 0.00 0.00 0.00 0.00 0.00 0.00 0.00 0.00 0.01 0.01 0.00 0.00 0.00 0.01 0.01 0.00 0.00 0.00 0.00 0.00 0.00 0.00 0.00 0.00 0.00 0.00 0.00 0.00 0.00 0.00 0.03 0.00 0.01 0.00 0.00 0.00 0.00 0.00 0.00 0.00 0.00 0.00 0.00 0.00 0.00 0.00
0.00 0.00 0.00 0.00 0.00 0.00 0.00 0.00 0.00 0.02 0.09 0.09 0.03 0.00 0.00 0.02 0.04 0.05 0.03 0.00 0.01 0.02 0.00 0.00 0.00 0.00 0.00 0.00 0.00 0.00 0.00 0.00 0.01 0.00 0.00 0.00 0.03 0.00 0.00 0.00 0.01 0.01 0.00 0.00 0.00 0.00 0.00 0.00 0.00
0.00 0.00 0.00 0.00 0.00 0.00 0.00 0.00 0.00 0.03 0.07 0.01 0.00 0.00 0.00 0.00 0.00 0.07 0.05 0.05 0.08 0.07 0.02 0.00 0.00 0.00 0.00 0.00 0.00 0.00 0.00 0.00 0.00 0.00 0.02 0.01 0.02 0.00 0.00 0.00 0.00 0.00 0.00 0.00 0.00 0.00 0.00 0.00 0.00
0.00 0.00 0.00 0.00 0.00 0.00 0.05 0.04 0.03 0.02 0.02 0.01 0.00 0.00 0.01 0.03 0.01 0.12 0.14 0.11 0.04 0.10 0.07 0.08 0.03 0.00 0.01 0.01 0.00 0.00 0.00 0.01 0.00 0.01 0.00 0.02 0.00 0.00 0.00 0.01 0.00 0.00 0.00 0.00 0.00 0.00 0.00 0.00 0.00
0.00 0.00 0.00 0.00 0.00 0.00 0.02 0.03 0.04 0.05 0.05 0.04 0.03 0.03 0.04 0.09 0.10 0.08 0.08 0.11 0.11 0.15 0.16 0.11 0.18 0.18 0.15 0.11 0.08 0.05 0.03 0.01 0.00 0.00 0.01 0.02 0.00 0.00 0.00 0.02 0.00 0.00 0.00 0.00 0.00 0.00 0.00 0.00 0.00
0.00 0.00 0.00 0.00 0.00 0.00 0.00 0.01 0.03 0.16 0.14 0.07 0.02 0.03 0.04 0.08 0.09 0.10 0.08 0.06 0.02 0.08 0.14 0.11 0.14 0.16 0.08 0.03 0.06 0.10 0.15 0.12 0.05 0.00 0.00 0.04 0.00 0.00 0.00 0.00 0.00 0.00 0.00 0.00 0.00 0.00 0.00 0.00 0.00
MSLP
1012.61 1012.82 1012.83 1013.10 1013.83 1013.89 1014.58 1014.11 1013.38 1012.24 1011.46 1010.87 1011.69 1011.55 1012.19 1012.61 1013.77 1015.42 1015.28 1016.04 1016.22 1016.79 1017.09 1017.31 1017.39 1017.55 1017.67 1017.71 1017.82 1017.85 1017.85 1017.93 1017.97 1018.03 1018.17 1018.23 1018.31 1018.23 1018.20 1018.25 1018.35 1018.42 1018.38 1018.42 1018.57 1018.67 1018.74 1018.73 1018.74
1012.69 1012.97 1013.09 1013.07 1013.45 1014.03 1014.31 1013.78 1013.31 1011.89 1010.74 1011.17 1011.45 1011.33 1012.14 1013.52 1013.77 1014.95 1015.79 1016.15 1016.33 1016.91 1017.24 1017.44 1017.49 1017.58 1017.71 1017.90 1017.97 1018.04 1018.07 1018.11 1018.12 1018.17 1018.29 1018.41 1018.35 1018.44 1018.43 1018.54 1018.60 1018.66 1018.74 1018.75 1018.85 1018.88 1018.93 1019.02 1019.11
1012.45 1012.56 1013.12 1013.11 1013.81 1014.27 1014.52 1013.67 1013.35 1012.53 1011.15 1011.11 1011.31 1011.57 1012.63 1013.65 1014.29 1014.97 1015.55 1016.09 1016.52 1017.16 1017.43 1017.57 1017.66 1017.71 1017.82 1017.93 1018.03 1018.10 1018.14 1018.18 1018.24 1018.25 1018.38 1018.46 1018.51 1018.54 1018.61 1018.68 1018.74 1018.83 1018.92 1018.95 1019.10 1019.11 1019.20 1019.33 1019.37
1012.32 1012.73 1012.83 1012.89 1013.13 1013.64 1013.91 1013.43 1013.04 1012.31 1011.36 1011.14 1011.35 1012.52 1013.39 1013.54 1014.10 1014.92 1015.78 1016.13 1016.83 1017.35 1017.61 1017.72 1017.85 1017.96 1018.02 1018.11 1018.23 1018.30 1018.38 1018.44 1018.46 1018.45 1018.54 1018.67 1018.72 1018.81 1018.90 1018.87 1018.96 1019.07 1019.11 1019.22 1019.30 1019.41 1019.54 1019.65 1019.48
1012.04 1012.27 1012.67 1012.42 1012.69 1013.34 1013.66 1013.35 1013.09 1012.00 1011.59 1011.37 1011.38 1012.95 1013.46 1014.09 1014.59 1015.43 1015.98 1016.54 1016.99 1017.59 1017.65 1017.84 1018.03 1018.18 1018.25 1018.32 1018.40 1018.51 1018.64 1018.72 1018.75 1018.79 1018.73 1018.85 1018.93 1019.01 1019.07 1019.10 1019.18 1019.21 1019.32 1019.44 1019.57 1019.69 1019.85 1019.95 1019.85
1012.01 1012.24 1012.47 1011.85 1012.74 1013.53 1013.59 1013.19 1012.77 1011.80 1011.59 1011.84 1011.99 1012.98 1014.05 1014.55 1014.98 1015.66 1016.25 1016.85 1017.12 1017.50 1017.77 1017.95 1018.14 1018.27 1018.45 1018.59 1018.65 1018.76 1018.91 1018.99 1018.98 1018.99 1018.99 1019.03 1019.11 1019.26 1019.34 1019.38 1019.39 1019.47 1019.55 1019.68 1019.83 1019.84 1020.13 1020.22 1020.25
1011.76 1012.06 1012.08 1012.17 1012.71 1013.01 1013.17 1013.10 1012.37 1011.71 1011.59 1011.84 1011.89 1013.20 1014.63 1014.97 1015.27 1015.87 1016.62 1017.18 1017.37 1017.55 1017.89 1018.15 1018.24 1018.34 1018.53 1018.86 1018.99 1019.05 1019.12 1019.15 1019.19 1019.25 1019.20 1019.20 1019.32 1019.40 1019.49 1019.56 1019.59 1019.67 1019.78 1019.98 1020.15 1020.13 1020.22 1020.34 1020.31
1011.37 1011.93 1011.63 1011.55 1012.05 1012.67 1012.72 1012.59 1012.00 1011.45 1011.51 1011.65 1012.00 1013.39 1014.30 1014.85 1015.55 1016.21 1016.89 1017.39 1017.77 1017.85 1018.00 1018.32 1018.45 1018.61 1018.83 1019.00 1019.11 1019.18 1019.24 1019.28 1019.37 1019.42 1019.43 1019.43 1019.47 1019.61 1019.69 1019.87 1019.82 1019.94 1020.06 1020.23 1020.32 1020.39 1020.55 1020.52 1020.46
1011.08 1011.81 1011.38 1011.13 1011.07 1012.03 1012.66 1012.08 1012.23 1011.98 1011.63 1011.92 1011.83 1012.82 1013.71 1014.93 1015.73 1016.48 1017.41 1017.96 1018.22 1018.37 1018.45 1018.44 1018.55 1018.78 1019.03 1019.13 1019.10 1019.13 1019.29 1019.35 1019.49 1019.55 1019.73 1019.91 1020.07 1020.02 1020.09 1020.07 1020.08 1020.13 1020.30 1020.45 1020.53 1020.60 1020.72 1020.75 1020.76
1011.26 1011.47 1010.75 1010.08 1010.01 1011.21 1012.18 1012.47 1012.52 1012.32 1012.11 1012.05 1012.49 1013.62 1014.23 1014.98 1015.71 1016.41 1017.12 1017.77 1018.42 1018.63 1018.66 1018.49 1018.65 1018.94 1019.13 1019.07 1019.30 1019.29 1019.43 1019.71 1019.87 1019.98 1020.06 1020.25 1020.38 1020.40 1020.38 1020.37 1020.37 1020.37 1020.39 1020.46 1020.52 1020.75 1020.93 1021.00 1021.19
1011.46 1011.14 1010.30 1010.01 1009.82 1010.75 1011.82 1012.66 1012.96 1013.31 1013.08 1012.19 1012.29 1013.53 1014.25 1014.95 1015.57 1016.21 1016.98 1017.23 1017.70 1018.32 1018.62 1018.68 1018.69 1018.83 1019.04 1019.33 1019.55 1019.50 1019.73 1020.02 1020.23 1020.26 1020.36 1020.40 1020.48 1020.60 1020.79 1020.90 1020.95 1020.87 1020.67 1020.69 1020.79 1021.02 1021.21 1021.13 1021.11
1010.75 1010.45 1010.37 1009.86 1009.69 1010.35 1011.34 1012.69 1012.88 1012.98 1012.50 1011.97 1012.38 1013.34 1014.05 1014.73 1015.47 1016.02 1016.79 1017.25 1017.46 1018.03 1018.35 1018.73 1018.87 1018.92 1019.04 1019.43 1019.69 1019.72 1019.95 1020.24 1020.62 1020.58 1020.58 1020.56 1020.73 1020.92 1021.09 1021.21 1021.18 1021.19 1021.10 1021.01 1021.33 1020.90 1020.73 1020.64 1020.99
1010.21 1010.07 1010.23 1010.26 1009.83 1009.86 1011.05 1012.12 1012.39 1012.83 1012.32 1012.09 1012.60 1013.48 1014.05 1014.61 1015.14 1015.81 1016.47 1017.21 1017.52 1017.81 1018.12 1018.79 1018.96 1019.08 1019.08 1019.24 1019.75 1019.89 1020.05 1020.22 1020.48 1020.46 1020.58 1020.63 1021.05 1021.15 1021.21 1021.17 1021.22 1021.41 1021.50 1021.52 1021.61 1021.54 1020.89 1020.70 1020.36
1008.85 1009.58 1010.30 1010.29 1010.21 1010.15 1011.05 1012.31 1012.37 1012.79 1012.05 1012.19 1012.44 1013.58 1014.12 1014.46 1015.24 1015.71 1016.43 1017.03 1017.47 1017.92 1018.20 1018.74 1019.10 1019.04 1019.14 1019.30 1019.53 1019.85 1019.95 1020.23 1020.35 1020.50 1020.57 1020.73 1021.07 1021.46 1021.54 1021.40 1021.27 1021.28 1021.69 1021.68 1021.72 1021.30 1021.30 1021.37 1020.92
1008.11 1009.12 1010.10 1009.96 1010.07 1010.73 1011.52 1012.46 1012.34 1012.22 1012.27 1012.14 1012.33 1012.91 1013.75 1013.94 1014.95 1015.15 1016.03 1016.73 1017.11 1017.81 1018.37 1018.49 1018.92 1018.91 1019.17 1019.39 1019.58 1019.87 1019.96 1020.21 1020.52 1020.86 1021.05 1021.06 1021.11 1021.47 1021.69 1021.43 1021.48 1021.55 1021.56 1021.54 1021.71 1021.47 1021.18 1021.23 1021.34
1008.43 1009.12 1009.25 1009.26 1009.90 1010.66 1011.04 1013.11 1013.07 1012.95 1012.51 1012.28 1012.31 1012.60 1013.02 1013.83 1014.49 1015.46 1015.94 1016.56 1017.14 1017.70 1018.41 1018.27 1018.47 1018.95 1019.25 1019.59 1019.88 1020.03 1020.17 1020.34 1020.47 1020.76 1021.10 1021.27 1021.31 1021.23 1021.31 1021.54 1021.75 1021.65 1021.71 1021.77 1021.76 1021.50 1021.75 1021.80 1021.73
1009.00 1009.06 1008.79 1009.11 1009.49 1010.43 1011.78 1013.83 1013.62 1013.30 1012.84 1012.57 1012.41 1012.66 1012.71 1013.65 1014.18 1015.17 1016.13 1016.73 1017.01 1017.59 1018.18 1018.46 1018.66 1019.18 1019.31 1019.69 1020.12 1020.07 1020.27 1020.71 1020.82 1020.74 1020.84 1021.02 1021.30 1021.29 1021.76 1021.68 1021.71 1021.48 1021.73 1021.88 1021.69 1021.69 1021.89 1022.05 1022.09
1009.31 1009.13 1008.67 1008.82 1009.71 1010.71 1012.20 1013.07 1013.55 1012.78 1012.63 1012.48 1012.39 1012.73 1012.84 1013.60 1014.30 1014.95 1015.82 1016.57 1017.09 1017.68 1018.03 1018.47 1018.78 1019.22 1019.48 1019.85 1020.33 1020.49 1020.85 1020.98 1020.98 1021.11 1021.15 1021.22 1021.22 1021.07 1021.53 1021.74 1021.51 1021.73 1021.87 1021.96 1022.07 1022.07 1022.16 1022.19 1022.07
1009.17 1009.04 1008.79 1008.79 1009.75 1011.37 1012.16 1013.14 1013.09 1013.21 1013.37 1013.01 1012.64 1012.81 1013.12 1013.61 1014.34 1014.74 1015.61 1016.35 1017.24 1017.80 1018.19 1018.54 1018.99 1019.43 1019.69 1020.38 1020.85 1021.15 1021.24 1021.28 1021.23 1021.28 1021.13 1021.12 1021.20 1021.16 1021.50 1021.56 1021.52 1021.53 1022.01 1022.26 1022.35 1022.44 1022.45 1022.07 1022.07
1008.95 1009.00 1009.13 1009.33 1009.71 1010.29 1012.60 1013.48 1014.14 1013.86 1013.42 1013.11 1012.62 1012.85 1013.26 1013.64 1014.50 1015.11 1015.80 1016.57 1016.95 1017.55 1017.95 1018.41 1018.73 1019.33 1019.65 1019.99 1020.63 1020.94 1021.15 1021.36 1021.29 1021.08 1021.16 1021.20 1021.37 1021.15 1021.38 1021.43 1021.65 1021.83 1021.99 1022.25 1022.35 1022.30 1022.49 1022.33 1022.10
1008.74 1008.80 1008.76 1009.23 1010.31 1011.23 1012.50 1013.79 1013.63 1013.59 1013.46 1013.41 1013.07 1012.83 1013.27 1013.58 1014.41 1015.01 1015.72 1016.17 1016.69 1017.36 1017.73 1018.24 1018.63 1019.18 1019.55 1020.00 1020.41 1021.09 1021.36 1021.59 1021.51 1021.33 1021.44 1021.21 1021.29 1021.21 1021.38 1021.31 1021.46 1021.92 1021.91 1022.25 1022.46 1022.28 1022.30 1022.51 1022.30
1008.53 1007.86 1008.18 1009.01 1009.84 1011.03 1011.53 1012.75 1012.59 1012.71 1013.23 1013.29 1013.37 1012.99 1013.33 1013.50 1014.40 1015.13 1015.43 1016.01 1016.34 1017.06 1017.57 1018.10 1018.56 1019.06 1019.59 1020.07 1020.27 1020.85 1021.39 1021.68 1021.60 1021.31 1021.39 1021.16 1021.26 1021.37 1021.33 1021.45 1021.56 1021.57 1021.96 1022.19 1022.15 1021.76 1022.14 1022.33 1022.58
1007.51 1007.29 1007.83 1008.25 1009.69 1010.69 1011.63 1012.11 1011.86 1012.36 1013.15 1013.06 1013.09 1013.43 1013.61 1013.77 1014.05 1014.79 1015.01 1015.51 1015.95 1016.75 1017.23 1017.81 1018.45 1018.85 1019.44 1020.11 1020.29 1020.81 1021.25 1021.31 1021.52 1021.37 1021.38 1021.32 1021.21 1021.32 1021.33 1021.45 1021.67 1021.90 1022.14 1022.03 1022.10 1021.98 1022.08 1022.24 1022.39
1006.61 1007.23 1007.57 1008.61 1009.75 1011.06 1011.18 1011.81 1012.67 1011.73 1011.52 1012.65 1012.96 1013.22 1013.31 1013.82 1014.44 1014.74 1014.99 1015.37 1015.80 1016.51 1017.16 1017.62 1018.19 1018.68 1019.20 1019.85 1020.25 1020.69 1021.13 1021.34 1021.55 1021.47 1021.52 1021.45 1021.41 1021.19 1021.07 1021.37 1021.56 1021.65 1021.92 1021.83 1021.96 1021.90 1022.16 1022.25 1022.25
1006.45 1007.99 1009.01 1010.23 1010.73 1010.93 1010.55 1012.24 1011.26 1011.49 1011.23 1011.60 1012.27 1012.43 1013.23 1013.57 1013.97 1014.60 1015.02 1015.48 1015.89 1016.33 1016.96 1017.54 1018.04 1018.65 1019.03 1019.63 1020.08 1020.49 1020.84 1021.20 1021.27 1021.32 1021.27 1021.54 1021.51 1021.37 1021.43 1021.42 1021.54 1021.63 1021.71 1021.83 1021.90 1021.84 1022.15 1022.23 1022.27
1006.49 1007.69 1008.95 1009.80 1010.90 1010.85 1011.21 1012.23 1012.76 1012.37 1012.20 1013.17 1013.77 1013.89 1014.18 1014.33 1014.42 1014.62 1014.81 1015.24 1015.71 1016.25 1016.80 1017.28 1017.91 1018.27 1018.68 1019.20 1019.81 1020.21 1020.61 1020.87 1021.00 1021.02 1021.15 1021.21 1021.28 1021.19 1020.97 1021.24 1021.36 1021.43 1021.51 1021.62 1021.79 1021.93 1022.05 1022.06 1022.23
1006.32 1007.32 1008.11 1009.54 1010.49 1010.99 1012.38 1013.67 1013.83 1014.14 1014.71 1014.86 1015.48 1015.92 1016.19 1015.71 1015.53 1015.26 1015.63 1015.71 1016.04 1016.53 1016.71 1016.93 1017.51 1017.98 1018.39 1018.79 1019.38 1019.85 1020.17 1020.37 1020.57 1020.67 1020.86 1020.97 1020.87 1020.72 1020.58 1020.77 1020.94 1021.07 1021.29 1021.37 1021.51 1021.91 1021.84 1022.01 1022.19
1005.76 1007.00 1008.50 1010.05 1011.19 1012.33 1013.10 1014.05 1014.87 1015.57 1016.17 1016.50 1016.79 1017.12 1017.17 1016.89 1016.70 1016.55 1016.46 1016.45 1016.52 1016.86 1017.38 1017.64 1017.50 1017.67 1018.19 1018.66 1018.98 1019.44 1019.79 1019.90 1019.91 1020.42 1020.62 1020.90 1020.71 1020.47 1020.55 1020.58 1020.70 1020.87 1021.05 1021.30 1021.49 1021.76 1021.91 1022.02 1022.11
1006.75 1007.47 1008.92 1010.15 1011.17 1012.38 1014.08 1015.46 1015.66 1016.43 1017.28 1017.85 1018.13 1018.19 1018.15 1018.18 1018.14 1018.09 1017.79 1017.43 1016.63 1017.48 1017.53 1017.63 1018.67 1018.48 1019.06 1019.17 1019.39 1019.55 1019.63 1019.76 1019.86 1020.18 1020.24 1020.41 1020.32 1020.29 1020.70 1020.85 1020.90 1020.93 1021.03 1021.10 1021.47 1021.64 1021.79 1021.83 1021.89
1006.95 1008.06 1009.03 1010.55 1011.77 1012.70 1013.95 1016.31 1016.73 1017.32 1018.20 1018.70 1018.89 1018.81 1018.73 1018.90 1018.85 1018.70 1018.86 1018.50 1017.79 1018.70 1018.27 1018.69 1018.34 1019.31 1019.59 1019.44 1019.41 1019.49 1019.65 1019.73 1019.98 1020.13 1020.13 1019.93 1020.13 1020.04 1020.45 1020.56 1020.80 1020.93 1021.04 1021.08 1021.27 1021.41 1021.52 1021.62 1021.66
Thickness
5795 5793 5794 5784 5756 5746 5733 5739 5759 5763 5771 5793 5787 5784 5775 5779 5763 5739 5772 5768 5767 5762 5761 5758 5757 5756 5755 5754 5752 5750 5748 5746 5744 5742 5741 5742 5743 5744 5745 5744 5742 5740 5740 5740 5739 5737 5737 5739 5740
5795 5792 5787 5773 5752 5735 5727 5759 5750 5770 5792 5789 5792 5789 5778 5759 5779 5768 5765 5771 5768 5763 5761 5759 5758 5758 5756 5754 5753 5751 5749 5746 5744 5743 5742 5741 5743 5744 5743 5742 5740 5738 5736 5736 5736 5736 5737 5738 5738
5797 5795 5771 5762 5747 5727 5728 5759 5763 5769 5798 5792 5783 5792 5778 5765 5778 5772 5776 5774 5769 5764 5762 5761 5759 5758 5756 5755 5753 5751 5750 5748 5745 5744 5744 5744 5743 5744 5744 5744 5742 5739 5736 5735 5735 5736 5737 5736 5737
5793 5784 5779 5756 5748 5751 5751 5766 5767 5778 5794 5796 5790 5769 5780 5789 5782 5781 5779 5775 5769 5764 5763 5761 5759 5757 5757 5755 5754 5752 5750 5748 5746 5745 5745 5745 5744 5744 5744 5744 5742 5738 5736 5735 5736 5736 5736 5736 5738
5796 5783 5759 5761 5760 5759 5762 5768 5768 5778 5785 5789 5791 5768 5772 5784 5786 5782 5779 5774 5770 5765 5764 5762 5759 5758 5757 5756 5754 5753 5751 5748 5746 5745 5745 5745 5744 5744 5744 5744 5743 5742 5741 5739 5739 5738 5737 5736 5737
5777 5780 5757 5757 5756 5754 5760 5769 5773 5785 5788 5785 5782 5773 5769 5785 5782 5781 5778 5774 5771 5767 5764 5763 5761 5760 5758 5756 5756 5754 5752 5750 5749 5747 5747 5747 5746 5744 5744 5744 5745 5744 5743 5741 5741 5740 5738 5737 5736
5777 5771 5765 5765 5755 5754 5760 5772 5776 5785 5785 5782 5793 5766 5769 5777 5783 5781 5777 5773 5771 5769 5766 5764 5763 5761 5760 5757 5756 5754 5754 5753 5751 5750 5750 5750 5748 5746 5746 5745 5745 5745 5744 5742 5741 5742 5741 5738 5738
5790 5777 5773 5774 5760 5752 5769 5775 5789 5791 5786 5802 5799 5764 5762 5778 5783 5780 5776 5773 5770 5769 5768 5766 5765 5763 5762 5760 5758 5756 5756 5756 5754 5752 5751 5752 5751 5748 5747 5745 5746 5745 5744 5744 5744 5743 5741 5740 5739
5800 5768 5764 5769 5772 5766 5774 5774 5787 5795 5792 5793 5799 5790 5790 5786 5782 5777 5770 5767 5767 5768 5768 5767 5767 5766 5764 5762 5761 5760 5758 5757 5756 5755 5752 5752 5751 5749 5747 5746 5747 5746 5745 5745 5745 5745 5743 5742 5741
5785 5765 5776 5794 5796 5778 5776 5775 5778 5784 5786 5786 5788 5788 5790 5787 5782 5776 5771 5766 5763 5764 5766 5769 5769 5768 5766 5765 5763 5763 5761 5759 5757 5756 5755 5754 5752 5750 5748 5747 5748 5748 5747 5747 5748 5746 5745 5744 5742
5777 5773 5794 5795 5803 5796 5783 5775 5780 5770 5762 5785 5786 5781 5784 5783 5782 5778 5774 5774 5772 5770 5769 5771 5771 5770 5769 5765 5764 5766 5764 5760 5758 5758 5756 5755 5754 5751 5749 5748 5748 5749 5750 5750 5750 5749 5748 5748 5747
5775 5787 5791 5800 5806 5799 5787 5779 5771 5775 5784 5798 5798 5790 5786 5782 5780 5781 5776 5775 5776 5773 5772 5771 5770 5770 5771 5767 5765 5766 5764 5761 5757 5759 5757 5758 5755 5754 5751 5749 5749 5750 5751 5753 5751 5754 5755 5757 5754
5782 5790 5790 5797 5803 5806 5797 5781 5779 5776 5792 5800 5798 5789 5784 5782 5783 5785 5784 5780 5778 5776 5776 5773 5771 5771 5772 5770 5766 5766 5765 5762 5758 5759 5758 5758 5757 5755 5754 5752 5752 5751 5752 5753 5753 5753 5758 5761 5763
5801 5794 5777 5791 5797 5801 5786 5780 5785 5780 5794 5795 5794 5784 5784 5786 5782 5782 5781 5778 5778 5778 5776 5775 5771 5772 5773 5772 5770 5768 5767 5765 5764 5761 5762 5761 5759 5755 5754 5755 5756 5756 5753 5753 5754 5757 5759 5760 5763
5807 5785 5783 5791 5792 5787 5789 5771 5775 5790 5793 5792 5791 5788 5787 5790 5787 5787 5784 5780 5783 5780 5778 5775 5775 5775 5773 5773 5772 5770 5770 5768 5765 5762 5760 5760 5759 5757 5755 5756 5757 5758 5758 5757 5756 5758 5763 5764 5762
5786 5781 5767 5790 5796 5791 5787 5747 5775 5782 5789 5786 5791 5791 5791 5790 5793 5788 5788 5784 5783 5782 5777 5780 5780 5777 5775 5773 5770 5770 5770 5767 5767 5764 5760 5759 5760 5760 5761 5759 5757 5758 5757 5758 5759 5761 5761 5762 5762
5776 5755 5770 5780 5799 5788 5776 5742 5757 5779 5785 5783 5790 5789 5794 5789 5792 5790 5785 5783 5784 5782 5778 5776 5778 5777 5777 5774 5770 5770 5768 5765 5765 5766 5765 5763 5761 5763 5759 5760 5760 5763 5760 5760 5761 5763 5763 5761 5762
5754 5762 5775 5776 5786 5783 5765 5759 5767 5783 5785 5787 5792 5788 5790 5785 5787 5791 5788 5787 5783 5781 5781 5780 5778 5777 5776 5774 5771 5770 5766 5764 5765 5764 5765 5765 5764 5765 5762 5761 5763 5763 5763 5763 5761 5762 5763 5763 5765
5770 5768 5771 5780 5780 5761 5762 5758 5766 5778 5777 5782 5789 5788 5787 5786 5789 5794 5791 5789 5784 5780 5778 5777 5776 5775 5775 5770 5767 5764 5764 5764 5765 5765 5766 5767 5768 5766 5767 5765 5765 5766 5763 5762 5761 5760 5761 5766 5768
5766 5761 5761 5774 5781 5773 5757 5755 5760 5771 5774 5779 5785 5788 5785 5785 5784 5785 5787 5784 5784 5782 5780 5777 5778 5775 5775 5774 5769 5767 5766 5766 5766 5768 5768 5767 5768 5769 5768 5768 5766 5766 5766 5763 5764 5765 5762 5766 5770
5756 5754 5760 5760 5765 5765 5754 5741 5750 5766 5771 5775 5783 5792 5786 5786 5781 5782 5782 5784 5784 5780 5780 5777 5777 5777 5777 5774 5771 5765 5764 5764 5766 5768 5767 5769 5769 5769 5770 5771 5770 5766 5768 5765 5764 5767 5766 5764 5770
5734 5775 5779 5766 5755 5731 5765 5721 5753 5762 5762 5769 5772 5783 5782 5788 5782 5779 5785 5784 5782 5780 5781 5779 5778 5776 5776 5773 5771 5766 5760 5758 5763 5768 5768 5771 5769 5769 5770 5771 5771 5771 5768 5768 5769 5772 5771 5770 5766
5761 5782 5776 5775 5753 5747 5746 5737 5750 5760 5755 5762 5769 5774 5778 5786 5784 5782 5788 5788 5788 5782 5780 5779 5778 5777 5774 5772 5770 5766 5763 5764 5764 5768 5769 5771 5771 5770 5771 5770 5771 5770 5768 5770 5770 5772 5773 5773 5771
5786 5777 5774 5762 5750 5718 5749 5743 5730 5758 5768 5769 5773 5777 5782 5785 5782 5783 5787 5788 5787 5783 5780 5779 5778 5775 5774 5771 5770 5766 5764 5764 5763 5765 5764 5768 5770 5772 5772 5771 5771 5770 5769 5770 5771 5773 5773 5774 5775
5769 5737 5706 5705 5708 5709 5754 5736 5755 5769 5782 5783 5779 5787 5784 5786 5785 5784 5782 5782 5782 5780 5779 5776 5775 5771 5772 5769 5768 5766 5765 5763 5765 5765 5768 5764 5767 5769 5768 5770 5771 5771 5771 5771 5771 5774 5773 5774 5775
5751 5736 5704 5706 5695 5729 5755 5724 5732 5758 5776 5770 5771 5776 5775 5776 5781 5783 5785 5785 5781 5778 5776 5776 5772 5772 5772 5771 5768 5767 5766 5765 5766 5768 5769 5769 5770 5771 5772 5771 5771 5771 5772 5772 5772 5773 5774 5773 5776
5749 5733 5753 5733 5728 5729 5717 5721 5733 5741 5742 5751 5753 5754 5753 5762 5767 5776 5774 5775 5781 5775 5775 5777 5772 5771 5771 5772 5770 5768 5767 5768 5769 5771 5771 5770 5773 5774 5776 5775 5774 5773 5772 5774 5773 5772 5774 5774 5775
5757 5763 5730 5711 5708 5708 5705 5706 5708 5725 5726 5733 5739 5743 5746 5754 5758 5762 5764 5768 5772 5770 5766 5767 5771 5770 5770 5769 5768 5767 5767 5771 5774 5769 5770 5768 5771 5773 5775 5777 5776 5774 5773 5771 5773 5773 5772 5773 5774
5734 5729 5727 5721 5712 5700 5686 5687 5719 5715 5718 5719 5724 5732 5737 5740 5742 5742 5749 5756 5764 5760 5763 5761 5752 5762 5760 5763 5764 5765 5764 5766 5769 5767 5770 5770 5772 5773 5772 5773 5773 5773 5774 5772 5772 5772 5773 5773 5775
5747 5736 5721 5703 5709 5703 5690 5685 5711 5709 5708 5710 5715 5722 5728 5729 5733 5736 5735 5741 5743 5743 5751 5750 5741 5750 5751 5756 5758 5761 5763 5764 5763 5763 5767 5769 5770 5771 5771 5771 5771 5771 5772 5773 5772 5772 5774 5773 5774